Date,TemperatureHighF,TemperatureAvgF,TemperatureLowF,DewpointHighF,DewpointAvgF,DewpointLowF,HumidityHigh,HumidityAvg,HumidityLow,PressureMaxIn,PressureMinIn,WindSpeedMaxMPH,WindSpeedAvgMPH,GustSpeedMaxMPH,PrecipitationSumIn
2012-1-1,64.1,42.6,25.3,26.6,17.5,12.7,76,42,14,30.38,30.26,14,2,14,0.00
2012-1-2,66.7,44.9,24.1,22.6,15.8,7.6,67,37,10,30.40,30.28,11,2,11,0.00
2012-1-3,69.3,44.4,28.1,25.7,20.7,17.0,71,44,14,30.38,30.26,8,2,8,0.00
2012-1-4,68.8,45.9,27.4,27.6,19.4,15.1,73,41,13,30.44,30.33,12,2,12,0.00
2012-1-5,72.2,52.5,29.8,28.7,21.7,16.1,68,35,13,30.33,30.08,22,4,22,0.00
2012-1-6,71.5,56.8,46.4,38.4,31.1,23.5,73,39,20,30.11,30.00,26,8,26,0.00
2012-1-7,60.1,46.7,27.3,39.5,31.1,12.4,83,57,28,30.19,30.00,31,8,31,0.00
2012-1-8,56.4,39.2,24.9,18.1,13.3,8.6,61,37,17,30.29,30.19,17,3,17,0.00
2012-1-9,62.2,41.8,24.9,24.2,18.6,13.2,72,43,20,30.32,30.21,13,3,13,0.00
2012-1-10,63.5,45.0,25.8,29.2,23.9,17.0,79,47,24,30.21,30.07,10,2,10,0.00
2012-1-11,58.7,36.6,30.6,20.7,18.9,16.1,60,49,21,30.13,30.08,5,1,8,0.00
2012-1-12,58.5,38.4,20.2,21.1,13.9,5.0,78,43,13,30.22,30.10,15,2,15,0.00
2012-1-13,60.2,37.3,19.1,12.3,3.6,-7.5,55,30,6,30.32,30.21,13,2,13,0.00
2012-1-14,58.6,36.8,18.2,12.7,5.5,-6.1,62,33,7,30.27,30.12,8,2,8,0.00
2012-1-15,60.9,45.7,32.0,29.3,14.6,0.8,66,32,9,30.12,29.98,20,3,20,0.00
2012-1-16,43.2,36.0,32.4,34.8,26.5,19.1,88,69,50,30.18,30.02,27,10,27,0.00
2012-1-17,54.2,41.1,32.0,24.0,11.6,-30.4,63,36,4,30.26,30.16,25,8,25,0.00
2012-1-18,63.7,54.0,41.6,8.8,-7.3,-33.7,14,8,2,30.29,30.17,23,8,23,0.00
2012-1-19,67.7,55.1,44.5,9.0,-10.9,-27.1,22,7,3,30.17,30.04,22,8,22,0.00
2012-1-20,66.6,55.4,48.9,44.2,29.5,-0.4,81,41,13,30.10,29.96,21,7,21,0.00
2012-1-21,51.9,47.5,39.3,45.7,38.1,30.0,86,70,46,30.11,29.86,32,10,32,0.01
2012-1-22,59.2,47.4,37.5,39.2,28.2,6.2,82,51,14,30.15,30.05,20,6,20,0.00
2012-1-23,50.2,45.7,41.7,44.6,38.4,23.0,90,76,35,30.05,29.84,29,6,29,0.32
2012-1-24,56.9,45.6,35.4,42.8,37.4,29.5,90,74,52,30.35,30.02,23,5,23,0.00
2012-1-25,68.2,49.3,31.4,41.7,34.7,28.3,90,61,31,30.39,30.25,20,3,20,0.00
2012-1-26,61.1,53.6,45.9,45.4,42.1,36.4,82,66,43,30.25,30.11,29,11,29,0.00
2012-1-27,62.7,50.2,34.3,45.2,32.0,18.5,91,55,20,30.28,30.10,23,5,23,0.00
2012-1-28,60.7,39.9,21.6,26.2,12.2,-1.4,82,40,8,30.40,30.27,20,4,20,0.00
2012-1-29,63.1,40.9,20.2,22.0,10.4,-5.8,70,36,7,30.37,30.12,11,2,12,0.00
2012-1-30,68.8,49.9,30.2,26.8,16.5,1.9,51,29,8,30.12,29.96,16,4,16,0.00
2012-1-31,65.8,52.8,39.1,41.4,32.7,20.1,80,49,24,30.17,29.98,18,5,18,0.00
2012-2-1,58.4,49.1,39.5,41.8,37.6,32.6,79,65,44,30.20,30.08,33,8,33,0.00
2012-2-2,58.3,46.7,30.8,40.2,29.4,12.5,92,55,26,30.14,29.99,24,5,24,0.00
2012-2-3,55.5,37.3,18.1,18.6,13.0,9.6,78,42,17,30.16,30.06,18,3,18,0.00
2012-2-4,57.4,39.0,19.3,22.7,18.1,11.0,78,47,25,30.16,30.07,20,4,20,0.00
2012-2-5,59.5,40.3,20.5,25.2,18.5,14.4,83,47,20,30.16,30.04,17,3,17,0.00
2012-2-6,57.6,43.0,23.4,21.9,17.1,14.1,74,39,20,30.12,29.98,17,4,17,0.00
2012-2-7,53.9,46.8,41.5,40.0,26.3,15.6,80,49,23,30.07,29.92,14,6,21,0.00
2012-2-8,63.1,45.5,26.9,38.3,31.8,24.4,93,63,30,30.27,30.07,11,2,14,0.00
2012-2-9,75.5,54.3,32.1,35.8,26.9,16.3,87,43,11,30.29,30.17,16,3,17,0.00
2012-2-10,73.0,59.0,39.4,39.5,28.5,18.0,62,33,16,30.19,30.02,20,6,20,0.00
2012-2-11,52.7,47.9,44.4,44.1,39.7,34.1,91,74,61,30.02,29.88,30,10,30,0.00
2012-2-12,51.4,46.1,43.1,39.1,36.6,29.8,80,70,53,30.01,29.89,32,10,32,0.00
2012-2-13,47.2,42.3,36.3,41.4,34.4,29.2,91,74,52,29.96,29.82,31,9,31,0.02
2012-2-14,50.4,40.3,35.3,36.0,32.4,28.3,90,74,48,30.05,29.85,32,11,32,0.00
2012-2-15,46.4,38.9,32.9,35.5,29.6,25.5,85,69,53,30.04,29.90,27,8,27,0.00
2012-2-16,59.2,44.9,24.8,32.2,26.3,21.0,87,52,24,30.19,30.04,26,4,28,0.00
2012-2-17,65.3,46.9,23.3,28.0,20.9,6.1,79,42,10,30.22,30.11,24,5,24,0.00
2012-2-18,60.7,51.1,44.0,37.2,32.1,21.8,73,49,35,30.13,29.99,28,10,28,0.00
2012-2-19,48.2,42.2,38.3,40.7,30.8,11.4,92,67,28,30.06,29.96,25,9,25,0.00
2012-2-20,59.2,47.1,34.4,24.9,19.6,11.5,58,34,20,30.13,30.00,20,6,20,0.00
2012-2-21,62.9,46.7,27.7,34.9,24.9,18.4,80,47,20,30.26,30.12,14,3,14,0.00
2012-2-22,75.3,53.4,34.5,37.7,29.6,22.3,72,44,19,30.25,30.00,27,7,27,0.00
2012-2-23,74.2,57.6,39.0,38.2,29.8,18.7,74,39,13,30.03,29.90,24,5,24,0.00
2012-2-24,70.1,51.7,28.3,37.9,19.8,6.1,77,37,8,30.22,30.04,16,3,16,0.00
2012-2-25,56.9,50.7,42.6,36.8,30.9,25.6,65,47,31,30.20,29.97,39,11,39,0.00
2012-2-26,62.6,49.1,33.4,35.6,19.3,-2.9,69,37,7,30.03,29.80,26,5,29,0.00
2012-2-27,49.3,41.0,34.5,39.9,34.4,28.5,92,78,58,29.85,29.75,19,5,24,0.16
2012-2-28,47.9,39.9,33.5,32.2,30.7,27.5,88,71,49,30.20,29.85,28,8,28,0.00
2012-2-29,55.0,44.6,33.6,39.7,34.4,28.8,91,69,47,30.20,30.09,22,9,33,0.00
2012-3-1,43.9,41.2,38.4,37.5,33.5,30.5,87,74,60,30.17,30.05,35,15,35,0.00
2012-3-2,56.0,42.6,25.5,35.0,14.6,-4.6,91,42,8,30.35,30.08,25,6,25,0.00
2012-3-3,65.8,42.8,19.6,18.8,8.0,-3.7,71,33,7,30.41,30.30,17,3,17,0.00
2012-3-4,72.6,49.1,25.8,23.0,17.1,7.0,67,35,11,30.31,30.11,17,3,17,0.00
2012-3-5,80.8,55.5,32.6,34.5,23.3,14.2,66,36,9,30.13,29.95,12,2,12,0.00
2012-3-6,57.4,48.1,36.5,37.7,27.7,10.9,69,45,33,29.95,29.75,34,12,34,0.00
2012-3-7,53.6,38.9,23.8,16.4,8.6,-1.1,54,31,11,30.20,29.84,25,4,25,0.00
2012-3-8,65.7,42.4,19.1,13.0,6.1,-3.8,60,29,6,30.37,30.20,23,4,23,0.00
2012-3-9,71.0,51.3,25.4,25.2,12.3,0.2,52,26,6,30.37,30.11,17,4,18,0.00
2012-3-10,75.0,59.9,46.1,28.3,14.5,-6.8,40,20,4,30.11,29.94,20,7,20,0.00
2012-3-11,67.9,53.2,43.7,40.8,32.2,21.0,78,47,23,29.99,29.92,24,8,24,0.00
2012-3-12,69.0,53.8,42.5,40.4,36.8,31.0,81,56,28,30.00,29.93,18,6,19,0.00
2012-3-13,63.4,52.2,41.6,40.1,37.4,35.1,82,59,36,30.05,29.96,20,7,22,0.00
2012-3-14,66.6,56.1,44.7,41.8,37.8,32.4,77,53,30,30.12,30.02,21,8,21,0.00
2012-3-15,70.3,58.1,48.6,44.6,43.1,39.5,81,59,34,30.12,30.03,26,10,26,0.00
2012-3-16,67.1,56.0,48.4,48.0,45.4,42.1,85,69,41,30.05,29.84,23,8,23,0.00
2012-3-17,49.1,44.6,32.8,44.5,38.5,29.9,91,79,59,29.85,29.56,26,7,26,0.58
2012-3-18,42.9,35.5,31.1,36.2,29.9,25.1,95,80,60,29.87,29.60,27,9,27,0.07
2012-3-19,46.6,36.3,32.1,28.5,26.2,23.8,81,68,43,29.93,29.82,31,9,31,0.00
2012-3-20,63.9,51.3,36.9,28.3,23.3,16.2,58,34,24,30.17,30.05,12,3,18,0.00
2012-3-21,74.4,59.6,54.2,41.9,39.6,37.7,56,48,27,30.01,29.96,14,5,14,0.00
2012-3-22,76.3,60.5,45.9,45.7,37.6,21.3,74,49,14,30.00,29.86,20,4,21,0.00
2012-3-23,68.3,53.9,41.6,44.8,34.5,19.1,89,52,21,30.02,29.92,25,7,25,0.00
2012-3-24,64.8,53.1,42.4,38.8,31.7,17.7,76,48,17,29.97,29.87,20,5,20,0.00
2012-3-25,48.4,43.3,37.7,42.4,37.1,21.9,91,79,47,29.89,29.74,17,3,17,0.90
2012-3-26,57.6,45.3,33.6,41.2,36.5,31.8,94,73,48,30.08,29.88,17,4,17,0.00
2012-3-27,64.3,50.6,38.2,38.2,32.7,20.5,91,55,21,30.06,29.98,20,4,20,0.00
2012-3-28,63.2,52.9,42.8,44.7,40.5,36.6,81,64,43,30.08,30.01,25,8,25,0.00
2012-3-29,69.3,55.7,47.3,45.4,42.8,35.9,89,64,30,30.07,29.97,23,11,28,0.00
2012-3-30,77.3,62.7,50.3,45.4,40.5,34.3,75,47,22,30.03,29.91,23,6,23,0.00
2012-3-31,64.3,52.5,40.0,46.5,42.1,33.0,86,69,41,29.96,29.88,21,8,27,0.04
2012-4-1,47.2,42.3,37.3,39.3,34.9,30.3,91,75,53,30.12,29.95,38,14,38,0.05
2012-4-2,65.8,51.5,39.2,38.7,32.3,22.7,77,51,22,30.13,29.96,30,6,30,0.00
2012-4-3,76.7,57.4,35.6,41.2,33.4,23.8,83,46,16,30.06,29.93,14,5,19,0.00
2012-4-4,57.7,50.5,44.4,42.8,38.9,33.2,89,65,48,30.05,29.92,29,12,29,0.00
2012-4-5,49.7,42.6,35.7,36.4,28.3,16.1,80,58,38,30.05,29.89,32,14,32,0.00
2012-4-6,60.9,46.9,33.7,27.4,16.4,3.5,73,37,11,30.18,30.05,21,7,21,0.00
2012-4-7,71.4,56.3,25.3,24.1,11.1,-3.9,71,24,5,30.18,30.06,17,4,17,0.00
2012-4-8,78.8,54.6,28.6,27.4,17.2,-10.3,72,32,3,30.12,30.02,16,4,16,0.00
2012-4-9,77.7,58.0,33.7,25.8,16.0,-5.7,56,25,4,30.06,29.92,17,4,20,0.00
2012-4-10,70.7,55.0,38.1,36.4,19.7,-10.3,70,31,4,29.98,29.81,29,4,29,0.00
2012-4-11,59.2,47.8,41.4,46.8,40.6,33.8,92,77,50,30.06,29.81,21,5,21,0.51
2012-4-12,57.4,46.8,37.9,43.7,38.9,34.4,90,75,51,30.11,30.00,22,5,23,0.00
2012-4-13,46.4,41.5,32.7,40.9,37.8,30.9,95,87,77,30.00,29.69,24,5,25,1.15
2012-4-14,37.7,36.2,34.7,35.2,33.4,32.1,95,90,86,29.81,29.71,30,14,30,0.10
2012-4-15,66.3,55.3,42.1,43.9,38.6,31.7,79,56,30,30.17,30.07,23,7,25,0.00
2012-4-16,77.2,59.4,39.9,48.3,37.9,21.7,75,49,19,30.22,30.11,19,4,19,0.00
2012-4-17,76.7,63.5,53.1,50.1,44.1,37.8,77,52,26,30.14,30.01,22,8,22,0.00
2012-4-18,67.2,60.7,54.4,50.6,46.7,38.8,74,60,50,30.07,29.96,38,13,38,0.00
2012-4-19,78.5,63.9,52.9,52.3,46.0,35.7,75,54,34,30.08,29.99,30,10,31,0.00
2012-4-20,89.7,70.8,49.8,59.4,47.0,38.7,83,47,18,30.12,29.99,11,4,16,0.00
2012-4-21,92.3,76.2,57.9,54.1,47.5,39.9,66,39,18,30.04,29.93,15,3,15,0.00
2012-4-22,91.5,74.0,53.8,54.1,46.0,36.0,76,41,15,29.99,29.91,18,3,18,0.00
2012-4-23,82.5,65.3,55.7,54.0,50.0,37.1,82,61,22,29.96,29.88,21,6,23,0.00
2012-4-24,78.9,63.6,51.6,53.6,46.4,31.4,85,58,24,30.03,29.94,24,7,24,0.00
2012-4-25,82.0,66.6,55.1,52.2,45.3,38.4,74,49,23,30.02,29.80,22,4,23,0.00
2012-4-26,60.9,55.0,51.6,50.7,47.2,41.6,85,75,53,30.05,29.83,25,7,25,0.01
2012-4-27,69.7,55.3,42.0,46.6,41.8,37.1,86,63,38,30.10,30.00,27,10,27,0.00
2012-4-28,75.5,62.2,50.0,47.2,42.2,37.1,78,51,30,30.02,29.86,26,9,26,0.00
2012-4-29,85.0,66.5,42.5,50.0,38.6,26.6,78,41,13,29.96,29.86,18,5,21,0.00
2012-4-30,82.8,72.1,61.2,49.8,42.0,31.2,55,36,16,29.99,29.90,18,7,22,0.00
2012-5-1,72.5,64.0,58.7,50.8,45.2,36.5,61,51,39,29.91,29.80,23,9,23,0.00
2012-5-2,72.8,62.4,51.9,42.6,36.6,21.6,57,41,15,29.91,29.80,32,13,32,0.00
2012-5-3,70.9,61.2,49.9,42.9,38.1,28.4,76,45,21,30.04,29.90,22,9,22,0.00
2012-5-4,65.2,56.8,49.0,47.5,45.5,41.7,87,67,48,30.09,30.02,28,11,28,0.00
2012-5-5,74.5,60.3,46.3,45.4,38.1,30.1,75,47,22,30.09,29.98,30,9,31,0.00
2012-5-6,80.8,66.8,52.3,40.7,31.3,7.0,56,31,6,30.06,29.97,20,6,20,0.00
2012-5-7,82.0,70.1,58.4,40.2,31.2,16.1,47,26,10,30.06,29.95,27,7,27,0.00
2012-5-8,86.9,71.5,48.7,38.4,25.7,1.3,58,23,5,30.01,29.92,24,5,24,0.00
2012-5-9,90.0,79.1,68.6,32.0,24.5,8.6,23,14,6,29.99,29.88,22,7,22,0.00
2012-5-10,85.0,75.2,61.7,42.6,36.4,29.8,40,25,16,29.92,29.83,20,7,21,0.00
2012-5-11,84.0,71.9,59.4,39.9,34.5,27.1,46,27,13,30.00,29.88,20,8,20,0.00
2012-5-12,91.7,75.6,63.8,41.8,34.0,24.1,40,24,10,30.07,29.99,20,5,20,0.00
2012-5-13,95.2,77.5,57.0,43.9,30.8,-1.3,44,22,3,30.08,29.98,18,5,18,0.00
2012-5-14,88.8,71.0,54.9,44.2,33.2,11.5,50,28,7,30.05,29.94,21,6,21,0.00
2012-5-15,74.7,63.8,51.5,45.1,39.4,20.2,76,44,15,30.00,29.93,29,12,29,0.00
2012-5-16,90.0,75.4,64.8,48.1,43.6,36.4,39,33,21,29.99,29.89,32,12,32,0.00
2012-5-17,89.0,76.1,61.1,50.3,38.0,12.2,47,28,9,29.90,29.78,27,10,29,0.00
2012-5-18,73.3,62.4,50.7,41.0,36.5,31.2,50,39,23,29.92,29.83,33,10,33,0.00
2012-5-19,87.9,72.5,59.1,44.5,38.7,25.0,53,32,11,29.98,29.89,20,6,21,0.00
2012-5-20,95.3,78.3,65.3,47.3,38.7,28.5,39,27,10,30.01,29.93,18,5,21,0.00
2012-5-21,91.0,79.0,68.4,48.0,43.3,35.8,44,30,16,30.04,29.96,23,8,23,0.00
2012-5-22,81.3,68.6,58.7,48.8,43.3,32.5,62,41,25,30.04,29.89,35,15,36,0.00
2012-5-23,72.0,63.2,55.3,45.7,40.2,30.7,63,45,25,29.92,29.69,41,15,41,0.00
2012-5-24,74.3,64.3,53.9,41.9,37.7,26.4,61,40,18,29.80,29.66,33,13,33,0.00
2012-5-25,62.7,53.5,43.7,40.2,32.7,28.1,72,46,34,29.80,29.66,24,8,24,0.00
2012-5-26,65.2,54.0,41.8,41.2,34.9,31.2,71,50,29,30.03,29.78,30,10,30,0.00
2012-5-27,77.2,62.4,47.5,42.9,38.7,29.9,75,45,19,30.06,29.98,23,7,23,0.00
2012-5-28,84.0,67.4,53.3,43.2,39.3,30.7,60,38,15,30.03,29.94,17,5,17,0.00
2012-5-29,85.3,72.0,58.9,43.1,38.5,30.4,49,32,17,30.03,29.95,21,7,21,0.00
2012-5-30,85.7,73.5,60.9,46.5,43.9,36.6,56,37,20,30.04,29.97,28,10,28,0.00
2012-5-31,99.6,82.3,69.0,49.2,42.6,16.0,45,28,5,30.02,29.88,22,7,26,0.00
2012-6-1,99.8,84.9,70.0,50.0,36.5,9.7,47,22,6,29.91,29.82,21,6,21,0.00
2012-6-2,87.8,78.3,70.9,51.6,45.8,37.5,47,32,22,29.90,29.84,27,9,27,0.00
2012-6-3,89.2,79.2,65.8,50.2,36.0,27.0,46,22,15,29.92,29.85,27,9,27,0.00
2012-6-4,81.2,70.5,53.2,52.0,47.9,34.5,83,47,26,29.99,29.87,29,12,31,0.00
2012-6-5,60.7,53.1,44.7,46.9,36.7,28.9,83,56,35,30.03,29.91,33,14,33,0.00
2012-6-6,74.5,62.3,49.3,39.9,35.9,28.0,60,39,22,29.97,29.88,29,9,29,0.00
2012-6-7,87.7,70.9,58.0,43.7,39.1,30.4,49,34,14,29.95,29.89,26,8,26,0.00
2012-6-8,81.6,70.7,59.6,47.9,44.7,32.5,59,41,26,29.91,29.84,28,11,28,0.00
2012-6-9,75.1,63.9,54.0,41.9,32.3,16.3,46,32,11,29.86,29.77,34,15,34,0.00
2012-6-10,87.8,71.4,48.3,39.8,23.8,1.2,50,23,4,29.96,29.83,23,5,24,0.00
2012-6-11,95.2,78.7,59.3,39.5,30.1,3.9,37,21,4,30.01,29.94,19,4,19,0.00
2012-6-12,96.3,83.1,70.6,38.0,30.3,13.0,30,17,6,30.00,29.91,18,5,18,0.00
2012-6-13,91.0,78.8,66.8,48.2,43.7,30.5,46,30,12,29.95,29.78,19,6,21,0.00
2012-6-14,90.5,78.9,68.2,49.8,47.2,43.1,47,34,22,29.82,29.77,19,7,19,0.00
2012-6-15,92.0,78.7,66.0,51.4,45.7,29.9,53,34,12,29.85,29.76,19,6,19,0.00
2012-6-16,98.3,83.6,64.9,49.4,39.4,21.5,52,26,7,29.94,29.83,22,5,22,0.00
2012-6-17,99.3,81.1,62.5,44.9,33.7,-4.1,47,23,3,30.01,29.91,17,4,17,0.00
2012-6-18,93.7,82.6,70.3,46.1,37.8,23.8,33,21,11,29.95,29.85,23,6,23,0.00
2012-6-19,89.2,79.0,69.7,37.4,30.0,4.2,26,18,5,29.90,29.82,29,11,29,0.00
2012-6-20,99.8,81.8,67.6,47.4,36.9,19.6,46,23,6,29.87,29.80,24,8,24,0.00
2012-6-21,91.8,81.3,69.3,43.0,36.7,24.3,31,21,14,29.92,29.83,23,9,23,0.00
2012-6-22,85.0,72.3,59.8,43.3,36.9,21.8,50,30,10,29.93,29.81,28,11,28,0.00
2012-6-23,81.8,69.1,56.8,48.3,43.0,20.7,70,41,18,29.90,29.80,21,7,21,0.00
2012-6-24,87.5,71.1,52.4,49.1,30.1,-3.1,68,31,3,30.00,29.89,18,4,18,0.00
2012-6-25,85.2,68.6,53.7,44.6,36.1,11.5,63,36,7,30.02,29.94,19,6,19,0.00
2012-6-26,81.9,67.0,51.7,45.5,42.5,36.2,73,44,21,29.99,29.85,25,9,25,0.00
2012-6-27,93.3,75.6,58.7,45.8,32.0,0.0,60,28,3,29.97,29.86,20,5,20,0.00
2012-6-28,95.0,79.3,64.1,46.2,27.0,-20.4,50,21,2,30.06,29.97,20,4,20,0.00
2012-6-29,89.5,76.4,63.2,49.2,42.2,33.0,54,32,14,30.06,29.99,21,8,21,0.00
2012-6-30,87.4,75.4,63.7,50.5,45.3,37.5,60,37,20,30.01,29.91,22,10,24,0.00
2012-7-1,85.1,74.2,63.4,57.0,53.3,46.4,78,50,27,29.92,29.83,23,11,26,0.00
2012-7-2,89.7,77.1,63.7,57.4,51.8,46.5,71,44,26,29.90,29.85,17,7,19,0.00
2012-7-3,94.2,79.8,67.7,51.3,43.2,12.2,49,31,6,29.91,29.85,22,5,22,0.00
2012-7-4,91.1,78.0,59.5,51.0,46.3,35.6,68,35,18,29.94,29.86,25,5,25,0.00
2012-7-5,92.3,78.0,60.2,51.5,44.8,37.2,61,33,15,30.00,29.93,18,4,18,0.00
2012-7-6,94.4,79.4,55.9,47.5,42.0,34.2,62,30,14,30.03,29.97,20,5,20,0.00
2012-7-7,96.2,80.9,63.2,46.5,33.8,19.7,51,22,7,30.05,29.99,20,4,20,0.00
2012-7-8,100.8,82.2,60.2,41.5,16.4,-24.0,41,15,1,30.06,29.98,16,3,16,0.00
2012-7-9,104.5,85.4,71.2,47.3,40.6,23.9,36,23,8,30.03,29.95,18,6,18,0.00
2012-7-10,107.6,89.8,74.5,49.2,42.9,29.5,38,22,7,30.00,29.89,29,6,29,0.00
2012-7-11,105.5,93.3,80.8,51.7,42.5,31.0,29,19,8,29.95,29.86,21,7,21,0.00
2012-7-12,96.0,88.8,83.0,55.4,50.7,43.0,36,27,20,29.97,29.86,25,6,25,0.00
2012-7-13,94.3,83.9,75.3,60.1,51.7,31.8,51,34,16,30.04,29.89,21,4,22,0.00
2012-7-14,94.7,79.9,62.0,42.6,33.1,15.1,42,20,7,30.00,29.90,23,4,23,0.00
2012-7-15,92.0,71.5,50.8,44.3,34.6,11.3,52,30,6,29.98,29.89,19,4,22,0.00
2012-7-16,86.7,70.6,54.5,40.1,28.3,5.7,45,24,7,29.95,29.88,25,5,25,0.00
2012-7-17,85.5,69.3,53.1,46.1,40.7,32.5,61,38,20,30.02,29.92,25,5,25,0.00
2012-7-18,89.5,71.8,53.4,47.4,37.1,21.6,65,33,9,30.03,29.98,20,4,22,0.00
2012-7-19,81.5,72.9,66.7,48.7,44.3,38.8,45,36,29,30.05,29.99,12,3,12,0.00
2012-7-21,100.5,84.6,68.7,54.5,47.1,23.2,55,31,8,30.05,29.93,8,4,17,0.00
2012-7-22,101.0,88.0,75.4,52.8,46.8,35.4,39,25,17,30.00,29.92,10,4,21,0.00
2012-7-23,96.5,82.1,70.6,43.4,31.5,1.6,35,19,4,30.01,29.95,8,4,19,0.00
2012-7-24,93.5,77.3,59.6,40.2,28.7,5.8,43,21,4,30.02,29.94,11,4,21,0.00
2012-7-25,94.4,75.9,54.2,40.5,19.7,-23.6,47,19,1,30.03,29.94,9,4,19,0.00
2012-7-26,94.1,80.1,62.8,37.8,14.8,-23.6,33,12,1,30.00,29.94,13,5,22,0.00
2012-7-27,94.1,80.4,59.4,39.7,19.0,1.1,46,15,3,30.01,29.97,17,4,17,0.00
2012-7-28,93.1,76.9,66.0,43.7,36.4,1.0,41,25,12,30.03,29.98,18,8,20,0.00
2012-7-29,99.4,78.4,65.6,45.5,36.8,5.1,43,27,3,30.04,29.94,13,5,24,0.00
2012-7-30,101.8,80.8,69.9,46.8,42.3,27.5,38,28,9,30.02,29.93,16,4,16,0.00
2012-7-31,100.0,77.8,67.5,48.8,46.2,40.2,46,35,15,30.05,29.96,18,3,18,0.00
2012-8-1,78.5,72.3,67.9,54.6,50.7,45.2,62,48,31,30.07,30.04,14,4,18,0.00
2012-8-3,89.3,86.3,83.0,38.4,34.5,25.6,20,16,11,29.88,29.85,16,8,16,0.00
2012-8-4,96.3,80.8,67.2,49.9,42.6,39.3,48,28,15,29.94,29.86,11,2,17,0.00
2012-8-5,102.5,90.3,65.9,50.7,46.3,41.8,50,24,13,30.09,29.93,19,6,19,0.00
2012-8-6,104.0,86.5,75.2,51.8,46.5,34.1,41,27,9,30.12,30.03,24,6,24,0.00
2012-8-7,104.8,88.2,75.8,51.8,46.8,36.3,39,25,14,30.07,29.97,20,6,20,0.00
2012-8-8,105.7,89.7,74.5,50.3,46.9,40.9,37,24,15,30.03,29.95,19,5,19,0.00
2012-8-9,107.5,91.6,74.6,52.6,46.3,43.3,35,22,12,30.01,29.92,17,4,18,0.00
2012-8-10,106.5,95.0,73.5,51.3,47.8,40.3,36,21,11,29.95,29.83,19,4,19,0.00
2012-8-11,107.0,92.6,74.1,54.5,47.3,42.3,36,22,13,29.90,29.84,24,3,24,0.00
2012-8-12,106.2,89.1,72.0,58.3,53.3,49.0,58,32,15,29.96,29.86,16,3,26,0.00
2012-8-13,104.1,88.0,70.5,53.7,51.4,47.3,51,30,15,29.97,29.87,11,3,29,0.00
2012-8-14,102.5,88.7,70.4,54.0,49.5,39.5,51,28,14,29.94,29.84,10,4,22,0.00
2012-8-15,100.2,85.4,68.4,52.9,49.4,38.4,51,30,12,29.94,29.86,15,4,27,0.00
2012-8-16,101.2,88.3,76.3,51.2,46.7,39.5,38,25,13,30.00,29.91,16,5,16,0.00
2012-8-17,98.7,85.9,76.7,52.0,47.6,43.1,35,27,18,30.02,29.92,20,6,20,0.00
2012-8-18,95.7,85.9,77.0,48.7,42.0,34.5,32,22,14,30.01,29.91,22,7,22,0.00
2012-8-19,97.5,85.2,74.9,49.5,45.8,40.5,37,26,18,29.97,29.89,22,8,22,0.00
2012-8-20,98.7,86.1,76.1,52.8,45.5,39.6,41,26,16,29.97,29.89,18,6,18,0.00
2012-8-21,97.5,84.8,75.3,53.6,43.2,28.2,33,24,11,29.95,29.89,16,5,16,0.00
2012-8-22,94.7,81.4,70.2,52.0,42.7,35.1,50,27,14,29.98,29.90,15,5,18,0.00
2012-8-23,96.0,80.9,62.9,45.5,41.2,35.6,49,26,15,29.99,29.89,18,4,18,0.00
2012-8-24,97.0,83.3,71.9,46.7,41.8,35.6,37,24,13,29.95,29.87,23,5,23,0.00
2012-8-25,94.0,80.5,64.1,52.7,44.8,36.3,46,30,15,29.91,29.84,17,4,17,0.00
2012-8-26,93.8,75.9,59.0,46.2,33.2,12.7,49,26,6,30.00,29.90,16,4,16,0.00
2012-8-27,98.5,78.3,55.6,45.7,30.7,6.1,61,24,4,30.06,29.96,17,3,17,0.00
2012-8-28,102.5,81.3,60.4,48.6,39.0,25.0,36,24,9,30.05,29.94,12,4,17,0.00
2012-8-29,102.7,86.2,71.7,51.2,45.6,35.8,41,26,13,29.98,29.85,19,4,19,0.00
2012-8-30,97.5,82.5,68.6,56.6,47.2,36.0,46,31,15,29.91,29.83,26,5,26,0.00
2012-8-31,91.5,77.5,66.4,53.3,42.6,26.9,56,31,15,29.97,29.89,15,4,22,0.00
2012-9-1,89.7,74.5,59.8,41.7,34.2,21.3,44,26,9,30.02,29.94,19,5,19,0.00
2012-9-2,95.3,76.8,54.3,43.1,31.4,-6.7,58,25,2,30.02,29.93,16,4,16,0.00
2012-9-3,99.7,78.9,56.1,35.5,23.1,-5.8,38,16,2,30.05,29.98,18,3,18,0.00
2012-9-4,98.0,82.3,65.2,49.7,29.6,6.1,28,16,4,30.08,29.98,18,3,18,0.00
2012-9-5,81.3,76.4,70.1,63.1,47.9,31.9,75,39,18,30.08,30.00,13,3,13,0.08
2012-9-6,90.5,79.3,70.0,56.6,51.3,40.0,53,39,28,30.04,29.98,19,5,19,0.00
2012-9-7,93.2,80.3,70.3,57.3,53.5,47.1,61,42,21,30.08,30.00,19,6,19,0.00
2012-9-8,101.2,84.3,72.2,53.1,51.1,47.5,48,34,18,30.06,29.92,17,5,17,0.00
2012-9-9,102.3,84.9,72.9,58.3,51.1,44.5,47,32,18,30.01,29.90,19,4,19,0.00
2012-9-10,95.8,81.8,72.3,62.4,55.8,48.4,63,42,26,29.97,29.88,18,4,18,0.00
2012-9-11,88.3,76.3,65.3,62.7,58.9,53.6,81,57,34,30.02,29.91,23,5,23,0.00
2012-9-12,90.9,75.2,56.6,58.0,52.8,46.6,78,49,24,30.11,30.01,19,3,19,0.00
2012-9-13,94.7,75.4,59.6,51.5,41.1,27.3,65,35,11,30.18,30.07,18,3,18,0.00
2012-9-14,95.3,75.7,54.7,42.7,32.5,24.4,41,24,11,30.19,30.06,17,2,17,0.00
2012-9-15,95.7,79.7,60.7,47.1,39.3,25.5,50,27,9,30.17,30.05,15,3,15,0.00
2012-9-16,95.8,82.1,67.7,47.5,39.8,29.7,38,24,10,30.11,30.01,21,3,21,0.00
2012-9-17,93.1,79.2,68.8,42.2,35.7,24.9,32,22,10,30.08,29.99,19,4,19,0.00
2012-9-18,95.3,77.5,55.9,43.0,33.7,15.1,44,24,7,30.10,30.00,16,3,16,0.00
2012-9-19,94.6,75.1,59.8,45.4,40.1,31.5,43,29,11,30.09,29.99,18,4,18,0.00
2012-9-20,97.0,81.3,64.3,45.1,38.1,30.0,38,23,10,30.07,29.96,19,3,19,0.00
2012-9-21,96.7,81.1,62.1,44.1,39.3,30.5,40,24,11,30.03,29.93,18,4,18,0.00
2012-9-22,94.6,78.9,66.3,44.8,40.8,35.6,41,27,14,30.03,29.97,17,2,17,0.00
2012-9-23,95.0,78.8,61.2,43.6,39.9,33.8,47,28,12,30.06,29.99,27,4,27,0.00
2012-9-24,91.1,76.8,62.8,46.1,39.8,19.4,46,28,12,30.03,29.90,23,4,23,0.00
2012-9-25,87.5,72.5,60.3,38.3,32.7,28.1,33,24,13,29.96,29.87,21,4,21,0.00
2012-9-26,89.1,74.9,56.1,38.9,31.6,26.6,39,22,13,29.95,29.87,15,3,15,0.00
2012-9-27,90.5,72.6,54.3,46.0,38.6,33.1,52,32,15,30.01,29.91,17,3,17,0.00
2012-9-28,90.5,75.0,60.3,45.4,36.9,28.2,42,26,13,30.01,29.91,15,3,15,0.00
2012-9-29,91.8,77.7,59.1,48.2,41.1,31.5,53,30,12,30.09,30.00,15,3,15,0.00
2012-9-30,94.0,81.3,70.7,48.0,40.4,27.5,40,26,10,30.13,30.04,14,4,18,0.00
2012-10-1,96.0,78.6,58.1,43.6,36.1,21.5,50,26,7,30.12,29.98,16,2,16,0.00
2012-10-2,99.8,81.4,60.8,44.1,35.8,22.7,45,23,7,30.01,29.91,16,3,16,0.00
2012-10-3,92.0,76.6,62.7,44.3,36.9,26.0,44,26,10,30.05,29.96,24,5,24,0.00
2012-10-4,84.9,72.5,60.4,42.5,37.9,32.5,41,30,16,30.11,30.04,23,7,23,0.00
2012-10-5,81.0,68.9,60.8,50.8,42.4,33.5,69,41,19,30.11,30.02,29,11,29,0.00
2012-10-6,81.3,67.9,57.5,49.6,45.3,38.3,74,47,22,30.04,29.92,22,9,22,0.00
2012-10-7,84.2,68.4,57.2,51.1,46.6,33.2,75,49,18,29.98,29.90,17,5,17,0.00
2012-10-8,78.0,65.8,56.3,49.2,45.4,34.0,74,50,22,30.00,29.95,21,7,21,0.00
2012-10-9,73.6,61.9,51.6,49.8,46.5,42.5,83,59,35,30.00,29.93,15,5,19,0.00
2012-10-10,69.7,56.7,44.3,49.0,44.1,39.8,93,66,35,30.00,29.90,17,2,17,0.00
2012-10-11,66.2,51.8,42.4,46.6,42.7,37.5,91,73,38,29.96,29.87,14,2,18,0.16
2012-10-12,61.2,53.3,47.7,47.8,45.6,44.0,88,76,57,30.16,29.95,20,6,20,0.00
2012-10-13,76.8,59.7,44.3,49.5,45.5,39.7,89,63,29,30.25,30.13,17,3,20,0.00
2012-10-14,82.3,62.2,42.8,47.7,41.5,35.7,88,54,20,30.24,30.08,16,2,16,0.00
2012-10-15,86.8,67.0,45.3,49.1,40.6,32.3,79,43,16,30.11,29.95,15,3,15,0.00
2012-10-16,86.3,71.9,62.6,52.3,43.7,33.2,58,38,20,30.01,29.87,24,6,24,0.00
2012-10-17,86.8,69.4,51.3,53.2,42.6,33.9,79,43,16,30.03,29.90,20,3,20,0.00
2012-10-18,86.0,67.4,47.5,55.9,38.1,20.4,77,41,10,30.12,30.03,13,2,13,0.00
2012-10-19,84.3,72.3,64.4,51.5,47.5,39.7,62,43,23,30.06,29.92,23,6,23,0.00
2012-10-20,78.8,67.9,60.4,53.9,48.6,38.2,77,52,27,29.93,29.80,22,7,22,0.00
2012-10-21,70.7,60.7,53.2,53.1,48.3,35.8,88,66,31,29.91,29.84,18,5,19,0.00
2012-10-22,65.3,56.2,48.2,49.1,46.1,41.9,87,70,45,29.97,29.86,31,6,31,0.00
2012-10-23,58.9,50.8,42.9,46.5,35.1,28.8,86,57,34,29.98,29.93,25,8,25,0.00
2012-10-24,56.3,49.5,44.9,40.2,37.1,33.0,79,63,42,30.16,29.97,23,7,23,0.00
2012-10-25,64.8,53.6,45.4,39.1,37.3,34.1,70,55,36,30.18,30.09,21,6,21,0.00
2012-10-26,67.5,50.0,33.4,36.2,25.7,16.9,82,45,18,30.26,30.11,19,3,20,0.00
2012-10-27,75.3,51.6,30.5,28.5,20.4,11.9,58,35,13,30.13,30.00,14,2,14,0.00
2012-10-28,77.4,50.2,36.0,28.6,24.2,18.6,59,40,11,30.10,30.04,10,2,10,0.00
2012-10-29,84.8,66.8,45.9,31.3,24.5,18.6,44,22,9,30.15,30.04,12,3,12,0.00
2012-10-30,83.0,62.9,47.1,28.3,23.5,17.8,45,24,11,30.13,30.02,12,2,12,0.00
2012-10-31,82.7,61.4,39.9,29.9,20.7,12.4,43,23,7,30.08,29.98,14,3,18,0.00
2012-11-1,73.8,61.8,51.1,45.6,33.5,27.2,64,36,19,30.01,29.94,18,4,18,0.00
2012-11-2,74.6,60.7,46.3,47.5,41.1,29.9,83,52,20,30.04,29.96,21,4,22,0.00
2012-11-3,75.8,56.4,39.3,41.2,31.4,23.0,79,45,15,30.17,30.03,12,2,12,0.00
2012-11-4,79.2,56.9,37.3,36.0,25.6,20.2,67,35,12,30.26,30.16,16,2,16,0.00
2012-11-5,81.5,59.9,39.9,29.5,24.6,20.3,51,30,12,30.27,30.15,16,3,16,0.00
2012-11-6,82.6,62.0,44.1,34.3,30.6,26.4,56,34,16,30.20,30.08,11,2,11,0.00
2012-11-7,82.0,64.7,49.8,42.4,33.0,26.9,63,34,14,30.10,29.95,15,4,15,0.00
2012-11-8,62.6,53.5,47.5,47.2,43.7,35.7,87,70,52,29.96,29.83,22,5,22,0.00
2012-11-9,51.4,44.1,38.3,38.1,33.1,28.0,86,66,41,29.93,29.82,24,7,24,0.00
2012-11-10,46.7,40.6,35.6,33.5,29.0,23.5,81,64,47,30.17,29.90,18,5,18,0.00
2012-11-11,52.4,38.9,24.0,28.3,19.3,10.1,73,48,25,30.37,30.15,17,3,17,0.00
2012-11-12,58.0,38.0,20.5,16.1,10.8,4.4,67,37,13,30.39,30.22,10,2,14,0.00
2012-11-13,64.3,41.4,20.5,11.9,5.2,-4.5,54,27,7,30.27,30.15,11,2,11,0.00
2012-11-14,65.0,44.0,25.1,15.2,10.2,4.5,50,28,11,30.20,30.10,11,2,11,0.00
2012-11-15,59.9,50.7,37.8,34.7,17.1,11.3,52,28,16,30.17,30.07,10,1,10,0.00
2012-11-16,62.1,53.1,44.7,45.5,38.2,28.8,86,58,43,30.12,30.03,20,2,20,0.00
2012-11-17,60.7,53.0,45.7,51.2,47.5,41.8,94,82,64,30.10,30.02,10,1,12,0.01
2012-11-18,62.8,51.6,41.6,48.3,43.6,39.5,94,76,49,30.16,30.06,18,3,18,0.00
2012-11-19,67.0,52.0,35.1,45.6,39.5,28.7,93,66,29,30.24,30.14,15,4,15,0.00
2012-11-20,70.3,51.4,32.4,40.4,35.4,27.7,87,58,27,30.21,30.07,15,2,15,0.00
2012-11-21,65.3,56.5,50.3,44.7,39.7,32.0,79,55,30,30.14,30.05,25,8,25,0.00
2012-11-22,69.9,53.0,38.6,46.6,37.2,25.6,92,60,26,30.25,30.07,20,3,20,0.00
2012-11-23,71.7,50.3,32.4,33.6,26.1,19.5,77,44,17,30.31,30.20,14,2,14,0.00
2012-11-24,40.5,36.1,32.6,24.9,23.4,19.8,68,60,47,30.24,30.20,5,1,5,0.00
2012-11-25,79.2,59.4,37.1,29.8,24.7,18.5,56,31,11,30.02,29.89,18,2,18,0.00
2012-11-26,70.3,50.4,32.0,28.7,24.4,18.5,65,40,17,30.15,29.99,12,2,12,0.00
2012-11-27,64.5,49.7,32.0,28.2,24.7,20.5,67,41,22,30.21,30.09,13,2,13,0.00
2012-11-28,66.5,51.0,35.6,48.7,37.4,22.9,85,62,26,30.16,30.07,22,2,22,0.00
2012-11-29,64.6,56.1,51.0,51.3,48.2,44.6,90,76,49,30.18,30.10,21,3,21,0.00
2012-11-30,64.1,56.6,49.4,53.3,48.4,44.5,89,75,54,30.13,30.04,17,4,25,0.00
2012-12-1,65.5,55.5,47.9,53.3,49.7,45.3,95,82,58,30.16,30.06,14,3,14,0.04
2012-12-2,64.5,55.3,47.9,53.6,49.5,46.0,96,81,56,30.09,29.97,23,4,23,0.01
2012-12-3,66.5,55.5,40.7,51.5,40.7,17.2,93,62,24,30.22,30.06,15,3,15,0.00
2012-12-4,64.1,46.6,31.2,40.8,31.6,22.8,82,58,33,30.31,30.20,8,1,8,0.00
2012-12-5,69.7,59.0,42.1,45.1,28.7,13.0,50,33,15,30.20,30.07,20,6,20,0.00
2012-12-6,65.5,54.2,49.3,47.8,44.7,33.2,87,72,44,30.07,29.96,22,8,22,0.00
2012-12-7,65.8,52.7,39.5,46.6,40.0,29.2,93,66,33,30.09,29.99,18,4,18,0.00
2012-12-8,68.7,53.2,34.0,34.4,23.3,-15.9,69,36,4,30.02,29.93,18,5,18,0.00
2012-12-9,64.5,48.3,35.2,34.3,23.6,16.5,75,41,17,30.22,29.98,15,2,15,0.00
2012-12-10,65.7,44.7,26.7,25.8,22.1,16.9,72,44,20,30.25,30.11,12,1,12,0.00
2012-12-11,71.1,47.1,26.2,34.8,25.8,16.1,74,47,18,30.12,29.92,11,1,11,0.00
2012-12-12,54.0,47.3,40.6,43.6,39.0,29.8,94,74,50,29.93,29.80,19,4,19,0.31
2012-12-13,48.4,40.3,35.7,38.7,35.2,32.1,93,82,64,29.80,29.71,16,5,16,0.04
2012-12-14,47.7,38.8,35.3,34.0,32.4,29.0,92,78,52,29.93,29.72,19,5,19,0.00
2012-12-15,44.6,38.3,32.3,32.2,30.0,26.3,87,72,54,30.03,29.91,20,6,20,0.00
2012-12-16,54.7,45.8,33.8,43.6,39.4,28.4,91,79,65,30.10,30.00,19,5,19,0.00
2012-12-17,60.3,48.3,41.8,46.3,42.6,38.0,91,81,54,30.11,29.94,17,5,17,0.00
2012-12-18,47.3,40.8,33.3,44.5,34.1,21.2,93,77,58,30.03,29.84,28,8,28,0.02
2012-12-19,44.4,34.0,22.5,24.4,14.5,4.0,76,48,19,30.34,30.00,27,4,27,0.00
2012-12-20,44.7,29.6,17.4,13.6,9.1,5.9,75,46,22,30.33,30.18,16,2,16,0.00
2012-12-21,50.9,29.4,11.8,21.0,13.1,7.2,85,56,23,30.19,30.05,9,1,9,0.00
2012-12-22,58.2,39.6,20.6,41.3,26.3,7.1,94,64,15,30.14,30.02,21,3,21,0.00
2012-12-23,53.7,45.6,38.4,41.5,38.2,35.2,94,76,56,30.15,30.02,17,4,17,0.00
2012-12-24,49.0,46.4,41.8,44.5,41.0,35.2,91,82,69,30.10,29.99,25,7,25,0.01
2012-12-25,46.4,37.8,25.8,34.3,23.5,18.5,89,59,34,30.16,29.92,11,1,11,0.00
2012-12-26,45.2,41.4,37.5,38.8,35.7,30.9,90,80,59,29.97,29.85,22,7,22,0.08
2012-12-27,43.4,37.8,32.8,36.1,32.5,27.8,92,81,65,30.12,29.94,29,7,29,0.09
2012-12-28,46.3,33.9,19.5,29.0,22.9,16.3,92,68,35,30.18,30.05,12,2,12,0.00
2012-12-29,41.9,31.5,22.6,30.9,24.3,18.2,92,76,44,30.06,29.94,13,1,13,0.00
2012-12-30,42.2,36.4,25.9,35.4,31.3,22.8,94,82,61,30.06,29.90,18,5,18,0.00
2012-12-31,48.2,35.1,23.0,32.8,26.8,18.0,90,74,31,30.22,30.06,10,2,15,0.00
2013-1-1,47.2,33.8,22.7,26.6,17.3,10.0,88,55,25,30.25,30.15,21,3,21,0.00